Regional Weather Roundup
Issued by NWS

Home | Current Version | Previous Version | Text Only | Print | Product List | Glossary Off
Versions: 1 2 3 4 5 6 7 8 9 10 11 12 13 14 15 16 17 18 19 20 21 22 23 24 25 26 27 28 29 30 31 32 33 34 35 36 37 38 39 40 41 42 43 44 45 46 47 48 49 50

000
ASUS45 KABQ 272001
RWRNM
NEW MEXICO REGIONAL WEATHER ROUNDUP
NATIONAL WEATHER SERVICE ALBUQUERQUE NM
200 PM MDT MON MAR 27 2017

NOTE: "FAIR" MEANS FEW OR NO CLOUDS BELOW 12,000 FEET AGL WITH NO
       SIGNIFICANT WEATHER OR OBSTRUCTIONS TO VISION.

      THIS PRODUCT IS RELEASED AS TWO VERSIONS.  ONE VERSION NEAR
      THE TOP OF THE HOUR CONTAINING PRELIMINARY DATA FROM ALBUQUERQUE
      AND OTHER STATIONS.  A FINAL VERSION WITH ADDITIONAL DATA IS
      ISSUED ABOUT 10 MINUTES AFTER THE HOUR.

NMZ501-503-504-510>518-272100-
NORTHWEST PLATEAU/NORTHCENTRAL MOUNTAINS

CITY           SKY/WX    TMP DP  RH WIND       PRES   REMARKS
FARMINGTON     CLOUDY    60  21  22 S6        29.86F
LOS ALAMOS     FAIR      56  18  22 S17G26    29.94F
SANTA FE       FAIR      63  22  20 S13       29.92F
TAOS             N/A     55  25  30 SW14G20   29.95F
ANGEL FIRE     PTSUNNY   51  23  33 SW8       29.98F

$$
NMZ402-403-502-505>509-272100-
WESTCENTRAL MOUNTAINS/SOUTHWEST MOUNTAINS

CITY           SKY/WX    TMP DP  RH WIND       PRES   REMARKS
GALLUP         CLOUDY    53  27  36 W14G22    29.95F
GRANTS         CLOUDY    59  21  23 SW6       29.93F
SILVER CITY    FAIR      68  24  18 S13G20    29.95F

$$
NMZ407-409-411-412-272100-
SOUTHERN DESERTS

CITY           SKY/WX    TMP DP  RH WIND       PRES   REMARKS
DEMING         FAIR      72  22  15 SW10G21   29.91F
LAS CRUCES     FAIR      73  21  14 SW16G22   29.93F
HOLLOMAN AFB   FAIR      73  24  16 S10       29.92F
ALAMOGORDO     FAIR      73  25  16 S7G16     29.91F
T OR C         FAIR      72  24  16 S17G25    29.88F

$$
NMZ519>523-272100-
CENTRAL VALLEYS/CENTRAL HIGHLANDS

CITY           SKY/WX    TMP DP  RH WIND       PRES   REMARKS
ALBUQUERQUE    FAIR      65  19  17 S12       29.90F
DOUBLE EAGLE   MOSUNNY   64  25  22 S15       29.92F
MORIARTY ARPT  FAIR      67  17  14 S10G20    29.93F
CLINES CORNERS FAIR      62  14  15 SW18G25   29.96F
BELEN          FAIR      67  17  14 S12       29.90F
SOCORRO        FAIR      71  21  15 SE12G23   29.87F

$$
NMZ524>526-539-540-272100-
SOUTHCENTRAL MOUNTAINS

CITY           SKY/WX    TMP DP  RH WIND       PRES   REMARKS
RUIDOSO        NOT AVBL

$$
NMZ527>531-272100-
NORTHEAST HIGHLANDS/NORTHEAST PLAINS

CITY           SKY/WX    TMP DP  RH WIND       PRES   REMARKS
LAS VEGAS      FAIR      63  19  18 S16G28    29.92F
RATON          FAIR      61  31  32 S15G25    29.89F
CLAYTON        FAIR      65  33  30 S16G25    29.91F

$$
NMZ532>537-272100-
EASTCENTRAL PLAINS

CITY           SKY/WX    TMP DP  RH WIND       PRES   REMARKS
TUCUMCARI      FAIR      72  31  22 S10       29.87F
CANNON AFB     FAIR      68  34  28 S13G21    29.93F
CLOVIS AIRPORT FAIR      68  37  32 S9G20     29.94F

$$
NMZ028-029-538-272100-
SOUTHEAST PLAINS

CITY           SKY/WX    TMP DP  RH WIND       PRES   REMARKS
ROSWELL        FAIR      71  30  21 S15G21    29.91F
ARTESIA        FAIR      70  34  26 SE13G20   29.90F
CARLSBAD       FAIR      72  33  24 SE12G23   29.89F
HOBBS          SUNNY     68  32  26 SE10      29.95F


$$



USA.gov is the U.S. government's official web portal to all federal, state and local government web resources and services.